Kalamata, Greece

6:02 PM EEST on May 27, 2017 (GMT +0300)
Kalamata Air Base

Weather History for LGKL - November, 2012

Change the Weather History Date:

Monday, November 19, 2012

  Actual Average Record
Temperature  
Mean Temperature 63 °F -  
Max Temperature 71 °F 65 °F 72 °F (2014)
Min Temperature 55 °F 47 °F 37 °F (1998)
Degree Days  
Heating Degree Days 2    
Growing Degree Days 13 (Base 50)    
Moisture  
Dew Point 53 °F    
Average Humidity 75    
Maximum Humidity 94    
Minimum Humidity 46    
Precipitation  
Precipitation 0.00 in 0.20 in - ()
Sea Level Pressure  
Sea Level Pressure 29.95 in    
Wind  
Wind Speed 2 mph ()    
Max Wind Speed 8 mph    
Max Gust Speed -    
Visibility 5.2 miles    
Events Rain    
Averages and records for this station are not official NWS values.
T = Trace of Precipitation, MM = Missing Value Source: Averaged Metar Reports

Daily Weather History Graph

Daily Weather History Graph

Search for Another Location

Airport or City:

Trip Planner

Search our weather history database for the weather conditions in past years. The results will help you decide how hot, cold, wet, or windy it might be!

Date:

Astronomy

Nov. 19, 2012 Rise Set
Actual Time 7:14 AM EET 5:19 PM EET
Civil Twilight 6:47 AM EET 5:47 PM EET
Nautical Twilight 6:15 AM EET 6:19 PM EET
Astronomical Twilight 5:44 AM EET 6:49 PM EET
Moon 12:09 PM EET (11/19) 11:22 PM EET (11/19)
Length of Visible Light 11h 00m
Length of Day
10h 04m
Waxing Crescent, 37% of the Moon is Illuminated
Nov 19
Waxing Crescent
Nov 20
First Quarter
Nov 28
Full
Dec 6
Last Quarter
Dec 13
New

Hourly Weather History & Observations

Time (EET) Temp. Dew Point Humidity Pressure Visibility Wind Dir Wind Speed Gust Speed Precip Events Conditions
4:50 AM 55.4 °F 50.0 °F 82% 29.98 in 6.2 mi Calm Calm - N/A   Scattered Clouds
5:20 AM 55.4 °F 48.2 °F 77% 29.98 in 6.2 mi Calm Calm - N/A   Scattered Clouds
5:50 AM 55.4 °F 50.0 °F 82% 29.98 in 6.2 mi Calm Calm - N/A   Scattered Clouds
6:20 AM 55.4 °F 48.2 °F 77% 29.98 in 6.2 mi Calm Calm - N/A   Scattered Clouds
6:50 AM 55.4 °F 50.0 °F 82% 29.98 in 6.2 mi Calm Calm - N/A   Scattered Clouds
7:20 AM 55.4 °F 48.2 °F 77% 29.95 in 6.2 mi NW 4.6 mph - N/A   Scattered Clouds
7:50 AM 55.4 °F 50.0 °F 82% 29.98 in 6.2 mi West 4.6 mph - N/A   Mostly Cloudy
8:20 AM 57.2 °F 50.0 °F 77% 29.98 in 6.2 mi NNW 4.6 mph - N/A   Mostly Cloudy
8:50 AM 59.0 °F 50.0 °F 72% 29.98 in 6.2 mi Calm Calm - N/A   Mostly Cloudy
9:20 AM 60.8 °F 51.8 °F 72% 29.98 in 6.2 mi North 3.5 mph - N/A   Mostly Cloudy
9:50 AM 62.6 °F 51.8 °F 68% 29.98 in 6.2 mi NNW 4.6 mph - N/A   Mostly Cloudy
10:20 AM 64.4 °F 51.8 °F 64% 29.98 in 6.2 mi NNW 3.5 mph - N/A   Mostly Cloudy
10:50 AM 66.2 °F 51.8 °F 60% 29.98 in 6.2 mi Calm Calm - N/A   Mostly Cloudy
11:20 AM 66.2 °F 53.6 °F 64% 29.95 in 6.2 mi Calm Calm - N/A   Mostly Cloudy
11:50 AM 68.0 °F 51.8 °F 56% 29.95 in 6.2 mi North 4.6 mph - N/A   Mostly Cloudy
12:20 PM 69.8 °F 51.8 °F 53% 29.95 in 6.2 mi NNE 4.6 mph - N/A   Mostly Cloudy
12:50 PM 71.6 °F 50.0 °F 46% 29.92 in 6.2 mi NE 4.6 mph - N/A   Mostly Cloudy
1:20 PM 71.6 °F 50.0 °F 46% 29.92 in 6.2 mi Calm Calm - N/A   Mostly Cloudy
1:50 PM 69.8 °F 51.8 °F 53% 29.92 in 6.2 mi Calm Calm - N/A   Mostly Cloudy
2:20 PM 69.8 °F 51.8 °F 53% 29.89 in 6.2 mi Calm Calm - N/A   Overcast
2:50 PM 66.2 °F 55.4 °F 68% 29.89 in 3.1 mi Calm Calm - N/A Rain Rain
3:20 PM 62.6 °F 57.2 °F 82% 29.92 in 3.1 mi Calm Calm - N/A Rain Rain
3:50 PM 62.6 °F 59.0 °F 88% 29.92 in 2.5 mi Calm Calm - N/A Rain Rain
4:20 PM 60.8 °F 57.2 °F 88% 29.92 in 2.5 mi Calm Calm - N/A Rain Rain
4:50 PM 60.8 °F 57.2 °F 88% 29.92 in 2.5 mi North 4.6 mph - N/A Rain Rain
5:20 PM 60.8 °F 59.0 °F 94% 29.95 in 6.2 mi NNW 4.6 mph - N/A Rain Rain
5:50 PM 59.0 °F 57.2 °F 94% 29.95 in 2.5 mi NE 4.6 mph - N/A Rain Rain
6:20 PM 59.0 °F 57.2 °F 94% 29.95 in 6.2 mi North 4.6 mph - N/A Rain Rain
6:50 PM 59.0 °F 57.2 °F 94% 29.95 in 3.1 mi Calm Calm - N/A   Overcast
7:20 PM 59.0 °F 57.2 °F 94% 29.95 in 3.1 mi NNW 8.1 mph - N/A Rain Rain
7:50 PM 59.0 °F 57.2 °F 94% 29.98 in 3.1 mi North 4.6 mph - N/A Rain Rain
10:50 PM 59.0 °F 57.2 °F 94% 29.98 in 3.7 mi Calm Calm - N/A Rain Rain